Location: Cheyres
(46.8153°N, 6.7877°E)
Time: 19:11:13
(UTC+00:00)

AO-109 - Pass Details

Date: 09 July 2022
Orbit: 469 x 506 km, 60.7° (Epoch: 16 August)

Event Time Altitude Azimuth Distance (km) Brightness Sun altitude
Exits shadow 01:00:07 40° 149° (SSE) 722 ? -18.4°
Maximum altitude 01:00:35 42° 127° (SE) 695 ? -18.3°
Drops below altitude 10° 01:04:08 10° 56° (NE) 1,670 ? -18.1°
Sets 01:06:22 0° 49° (NE) 2,562 ? -18.0°
